TimeMST,TemperatureF,Dew PointF,Humidity,Sea Level PressureIn,VisibilityMPH,Wind Direction,Wind SpeedMPH,Gust SpeedMPH,PrecipitationIn,Events,Conditions,WindDirDegrees,DateUTC
12:55 AM,48.0,30.9,52,29.96,10.0,Calm,Calm,-,N/A,,Overcast,0,2012-12-30 07:55:00
1:55 AM,46.9,30.0,52,29.95,10.0,Calm,Calm,-,N/A,,Overcast,0,2012-12-30 08:55:00
2:55 AM,46.9,30.0,52,29.95,10.0,Calm,Calm,-,N/A,,Overcast,0,2012-12-30 09:55:00
3:55 AM,46.9,30.0,52,29.94,10.0,Calm,Calm,-,N/A,,Overcast,0,2012-12-30 10:55:00
4:55 AM,45.0,32.0,60,29.93,10.0,Calm,Calm,-,N/A,,Overcast,0,2012-12-30 11:55:00
6:55 AM,45.0,30.0,56,29.93,10.0,Calm,Calm,-,N/A,,Mostly Cloudy,0,2012-12-30 13:55:00
7:55 AM,45.0,32.0,60,29.95,10.0,Calm,Calm,-,N/A,,Mostly Cloudy,0,2012-12-30 14:55:00
8:55 AM,45.0,30.9,58,29.95,10.0,Calm,Calm,-,N/A,,Mostly Cloudy,0,2012-12-30 15:55:00
9:55 AM,46.9,30.9,54,29.97,10.0,Calm,Calm,-,N/A,,Mostly Cloudy,0,2012-12-30 16:55:00
10:55 AM,54.0,30.9,41,29.96,10.0,NW,4.6,-,N/A,,Scattered Clouds,320,2012-12-30 17:55:00
11:55 AM,59.0,34.0,39,29.94,10.0,NW,9.2,-,N/A,,Partly Cloudy,320,2012-12-30 18:55:00
12:55 PM,59.0,34.0,39,29.91,10.0,WNW,8.1,-,N/A,,Partly Cloudy,300,2012-12-30 19:55:00
1:55 PM,61.0,30.9,32,29.88,10.0,West,10.4,-,N/A,,Scattered Clouds,280,2012-12-30 20:55:00
2:55 PM,61.0,30.9,32,29.86,10.0,NW,6.9,16.1,N/A,,Scattered Clouds,310,2012-12-30 21:55:00
3:55 PM,61.0,28.9,30,29.86,10.0,West,11.5,-,N/A,,Scattered Clouds,280,2012-12-30 22:55:00
4:55 PM,59.0,30.9,35,29.86,10.0,West,9.2,-,N/A,,Mostly Cloudy,280,2012-12-30 23:55:00
5:55 PM,57.0,33.1,40,29.87,10.0,West,5.8,-,N/A,,Overcast,280,2012-12-31 00:55:00
6:55 PM,55.0,35.1,47,29.90,10.0,WSW,5.8,-,N/A,,Overcast,240,2012-12-31 01:55:00
7:55 PM,53.1,37.9,57,29.94,10.0,West,12.7,-,N/A,,Overcast,260,2012-12-31 02:55:00
8:55 PM,51.1,39.0,63,29.96,10.0,West,8.1,-,N/A,,Mostly Cloudy,280,2012-12-31 03:55:00
9:55 PM,51.1,39.9,66,29.97,10.0,NNW,10.4,-,0.00,Rain,Light Rain,330,2012-12-31 04:55:00
10:55 PM,51.1,37.0,59,29.99,10.0,WNW,6.9,-,0.00,,Mostly Cloudy,300,2012-12-31 05:55:00
11:55 PM,50.0,37.9,63,29.99,10.0,West,4.6,-,N/A,,Mostly Cloudy,280,2012-12-31 06:55:00